UTA131 USTR-USHI

Flight info

Callsign UTA131
Flight time 1h 50m
Altitude 19000
Route N0240F190 LAKED L165 SORLI W253 BULOM
Aircraft AN24/M-I/L

Departure

Time 2026-04-19 06:10
Airport Roshchino International Airport (USTR)

Arrival

Time 2026-04-19 08:01
Airport Igrim Airport (USHI)
Time Latitude Longitude Altitude Speed Heading
2026-04-19 05:31 57.17770 65.35076 339 ft 0 kts 44°
2026-04-19 06:04 57.17776 65.35087 339 ft 4 kts 45°
2026-04-19 06:04 57.17786 65.35126 339 ft 6 kts 94°
2026-04-19 06:05 57.17746 65.35217 340 ft 17 kts 133°
2026-04-19 06:05 57.17676 65.35350 340 ft 11 kts 135°
2026-04-19 06:05 57.17608 65.35475 341 ft 13 kts 135°
2026-04-19 06:05 57.17556 65.35571 341 ft 7 kts 134°
2026-04-19 06:06 57.17529 65.35620 342 ft 3 kts 135°
2026-04-19 06:06 57.17520 65.35635 342 ft 0 kts 133°
2026-04-19 06:06 57.17519 65.35638 342 ft 3 kts 133°
2026-04-19 06:06 57.17464 65.35712 342 ft 10 kts 178°
2026-04-19 06:07 57.17358 65.35679 344 ft 14 kts 218°
2026-04-19 06:07 57.17296 65.35562 347 ft 11 kts 240°
2026-04-19 06:07 57.17324 65.35454 348 ft 9 kts 315°
2026-04-19 06:07 57.17358 65.35389 348 ft 0 kts 315°
2026-04-19 06:09 57.17382 65.35345 347 ft 28 kts 315°
2026-04-19 06:09 57.17709 65.34731 341 ft 98 kts 316°
2026-04-19 06:09 57.18279 65.33657 359 ft 132 kts 317°
2026-04-19 06:10 57.18975 65.32349 536 ft 151 kts 320°
2026-04-19 06:10 57.19748 65.30972 794 ft 162 kts 320°
2026-04-19 06:10 57.20594 65.29473 1043 ft 174 kts 319°
2026-04-19 06:10 57.21471 65.27866 1353 ft 181 kts 318°
2026-04-19 06:11 57.22482 65.26523 1633 ft 183 kts 338°
2026-04-19 06:11 57.23690 65.25990 1954 ft 178 kts
2026-04-19 06:11 57.24884 65.26436 2178 ft 178 kts 26°
2026-04-19 06:12 57.26744 65.29433 2743 ft 177 kts 46°
2026-04-19 06:12 57.27654 65.31006 2953 ft 183 kts 44°
2026-04-19 06:12 57.28609 65.32637 3177 ft 188 kts 44°
2026-04-19 06:12 57.29669 65.34081 3386 ft 194 kts 26°
2026-04-19 06:13 57.30980 65.34795 3510 ft 201 kts 10°
2026-04-19 06:13 57.32298 65.35352 4001 ft 189 kts 12°
2026-04-19 06:13 57.33553 65.35931 4306 ft 188 kts 11°
2026-04-19 06:13 57.34851 65.36453 4469 ft 195 kts
2026-04-19 06:14 57.36177 65.36910 4775 ft 192 kts
2026-04-19 06:14 57.37494 65.37311 5030 ft 191 kts
2026-04-19 06:14 57.38804 65.37742 5226 ft 193 kts
2026-04-19 06:14 57.40119 65.38204 5462 ft 191 kts
2026-04-19 06:15 57.41429 65.38646 5684 ft 190 kts
2026-04-19 06:15 57.42729 65.39038 5888 ft 191 kts
2026-04-19 06:15 57.44029 65.39507 6090 ft 192 kts
2026-04-19 06:15 57.45321 65.39930 6307 ft 190 kts
2026-04-19 06:16 57.46625 65.40340 6529 ft 188 kts
2026-04-19 06:16 57.47918 65.40741 6735 ft 188 kts
2026-04-19 06:16 57.49212 65.41134 6878 ft 191 kts
2026-04-19 06:16 57.50529 65.41412 7077 ft 189 kts 359°
2026-04-19 06:17 57.51826 65.41727 7292 ft 189 kts
2026-04-19 06:17 57.53123 65.42206 7477 ft 192 kts
2026-04-19 06:17 57.54425 65.42776 7619 ft 193 kts
2026-04-19 06:17 57.55737 65.43233 7761 ft 193 kts
2026-04-19 06:18 57.57046 65.43711 7946 ft 193 kts
2026-04-19 06:18 57.58360 65.44093 8126 ft 190 kts
2026-04-19 06:18 57.59659 65.44453 8310 ft 191 kts
2026-04-19 06:18 57.60961 65.44995 8470 ft 192 kts
2026-04-19 06:19 57.62280 65.45521 8617 ft 194 kts
2026-04-19 06:19 57.63581 65.45968 8937 ft 184 kts
2026-04-19 06:19 57.64833 65.46364 9116 ft 185 kts
2026-04-19 06:19 57.66122 65.46809 9179 ft 191 kts 359°
2026-04-19 06:20 57.67419 65.47200 9424 ft 186 kts 359°
2026-04-19 06:20 57.68700 65.47621 9571 ft 188 kts 360°
2026-04-19 06:20 57.69978 65.48043 9740 ft 187 kts
2026-04-19 06:20 57.71260 65.48446 9897 ft 188 kts
2026-04-19 06:21 57.72565 65.48833 10044 ft 190 kts 360°
2026-04-19 06:21 57.73879 65.49232 10162 ft 193 kts
2026-04-19 06:21 57.75180 65.49595 10381 ft 188 kts
2026-04-19 06:21 57.76462 65.49948 10580 ft 185 kts 357°
2026-04-19 06:22 57.77743 65.50280 10734 ft 186 kts 358°
2026-04-19 06:22 57.79015 65.50657 10889 ft 186 kts 358°
2026-04-19 06:22 57.80302 65.50976 11043 ft 186 kts 356°
2026-04-19 06:22 57.81581 65.51341 11157 ft 192 kts
2026-04-19 06:23 57.82883 65.51892 11301 ft 193 kts
2026-04-19 06:23 57.84199 65.52470 11483 ft 191 kts
2026-04-19 06:23 57.85508 65.52948 11603 ft 192 kts
2026-04-19 06:23 57.86809 65.53394 11771 ft 190 kts
2026-04-19 06:24 57.88090 65.53828 11985 ft 186 kts
2026-04-19 06:24 57.89387 65.54228 12107 ft 190 kts
2026-04-19 06:24 57.90693 65.54693 12213 ft 194 kts
2026-04-19 06:24 57.91997 65.55241 12350 ft 193 kts
2026-04-19 06:25 57.93296 65.55749 12539 ft 191 kts
2026-04-19 06:25 57.94597 65.56278 12679 ft 192 kts
2026-04-19 06:25 57.95915 65.56778 12790 ft 193 kts
2026-04-19 06:25 57.97217 65.57306 12951 ft 193 kts
2026-04-19 06:26 57.98540 65.57826 13093 ft 193 kts
2026-04-19 06:26 57.99842 65.58385 13243 ft 194 kts
2026-04-19 06:26 58.01163 65.58943 13400 ft 193 kts
2026-04-19 06:26 58.02453 65.59590 13481 ft 196 kts
2026-04-19 06:27 58.03789 65.60055 13554 ft 196 kts 358°
2026-04-19 06:27 58.05127 65.60426 13772 ft 191 kts 358°
2026-04-19 06:27 58.06431 65.60763 13934 ft 189 kts 357°
2026-04-19 06:27 58.07751 65.61053 13996 ft 193 kts 358°
2026-04-19 06:28 58.09082 65.61466 14118 ft 192 kts 359°
2026-04-19 06:28 58.10385 65.61817 14308 ft 187 kts 355°
2026-04-19 06:28 58.11690 65.61953 14293 ft 194 kts 351°
2026-04-19 06:28 58.13026 65.62066 14507 ft 192 kts 356°
2026-04-19 06:29 58.14334 65.62309 14776 ft 187 kts 355°
2026-04-19 06:29 58.15633 65.62572 14884 ft 192 kts 359°
2026-04-19 06:29 58.16948 65.62849 14989 ft 192 kts 355°
2026-04-19 06:29 58.18296 65.63090 15077 ft 196 kts 359°
2026-04-19 06:30 58.19630 65.63351 15291 ft 192 kts 353°
2026-04-19 06:30 58.20948 65.63596 15496 ft 188 kts 355°
2026-04-19 06:30 58.22245 65.63778 15524 ft 192 kts 354°
2026-04-19 06:30 58.23581 65.64021 15609 ft 194 kts 355°
2026-04-19 06:31 58.24923 65.64296 15723 ft 195 kts 356°
2026-04-19 06:31 58.26249 65.64585 15929 ft 191 kts 355°
2026-04-19 06:31 58.27566 65.64857 16053 ft 191 kts 351°
2026-04-19 06:31 58.28913 65.65076 16141 ft 195 kts 357°
2026-04-19 06:32 58.30238 65.65380 16280 ft 195 kts 356°
2026-04-19 06:32 58.31599 65.65734 16360 ft 198 kts 358°
2026-04-19 06:32 58.32970 65.66067 16457 ft 198 kts 356°
2026-04-19 06:32 58.34329 65.66383 16576 ft 199 kts 358°
2026-04-19 06:33 58.35700 65.66703 16669 ft 200 kts 356°
2026-04-19 06:33 58.37075 65.67001 16842 ft 197 kts 355°
2026-04-19 06:33 58.38428 65.67291 16992 ft 196 kts 357°
2026-04-19 06:33 58.39780 65.67584 17072 ft 196 kts 354°
2026-04-19 06:34 58.41157 65.67815 17147 ft 198 kts 354°
2026-04-19 06:34 58.42533 65.68050 17264 ft 199 kts 355°
2026-04-19 06:34 58.43887 65.68310 17433 ft 195 kts 356°
2026-04-19 06:34 58.45235 65.68568 17477 ft 200 kts 354°
2026-04-19 06:35 58.46624 65.68835 17619 ft 198 kts 355°
2026-04-19 06:35 58.47970 65.69068 17807 ft 194 kts 354°
2026-04-19 06:35 58.49323 65.69261 17862 ft 196 kts 353°
2026-04-19 06:35 58.50699 65.69504 17882 ft 201 kts 354°
2026-04-19 06:36 58.52076 65.69755 18014 ft 200 kts 355°
2026-04-19 06:36 58.53438 65.70052 18156 ft 199 kts 356°
2026-04-19 06:36 58.54828 65.70328 18166 ft 203 kts 355°
2026-04-19 06:36 58.56241 65.70632 18224 ft 205 kts 356°
2026-04-19 06:37 58.57639 65.70962 18399 ft 200 kts 355°
2026-04-19 06:37 58.58988 65.71245 18564 ft 195 kts 352°
2026-04-19 06:37 58.60349 65.71459 18616 ft 199 kts 354°
2026-04-19 06:37 58.61737 65.71738 18667 ft 204 kts 357°
2026-04-19 06:38 58.63161 65.72057 18747 ft 204 kts 354°
2026-04-19 06:38 58.64554 65.72261 18855 ft 200 kts 354°
2026-04-19 06:38 58.65961 65.72431 18856 ft 205 kts 356°
2026-04-19 06:38 58.67370 65.72710 18913 ft 205 kts 354°
2026-04-19 06:39 58.68791 65.72957 19005 ft 204 kts 353°
2026-04-19 06:39 58.70203 65.73193 19100 ft 203 kts 353°
2026-04-19 06:39 58.71617 65.73441 19169 ft 205 kts 354°
2026-04-19 06:39 58.73037 65.73679 19197 ft 209 kts 355°
2026-04-19 06:40 58.74488 65.73929 19178 ft 213 kts 354°
2026-04-19 06:40 58.75995 65.74186 19167 ft 216 kts 353°
2026-04-19 06:40 58.77496 65.74444 19182 ft 218 kts 355°
2026-04-19 06:40 58.79009 65.74710 19178 ft 221 kts 354°
2026-04-19 06:41 58.80548 65.74972 19158 ft 223 kts 354°
2026-04-19 06:41 58.82084 65.75242 19178 ft 223 kts 355°
2026-04-19 06:41 58.83614 65.75514 19175 ft 224 kts 353°
2026-04-19 06:41 58.85177 65.75784 19161 ft 226 kts 354°
2026-04-19 06:42 58.86739 65.76063 19191 ft 225 kts 354°
2026-04-19 06:42 58.88290 65.76331 19178 ft 227 kts 354°
2026-04-19 06:42 58.89854 65.76605 19188 ft 228 kts 354°
2026-04-19 06:42 58.91434 65.76884 19173 ft 229 kts 354°
2026-04-19 06:43 58.93042 65.77168 19171 ft 230 kts 354°
2026-04-19 06:43 58.94613 65.77446 19189 ft 230 kts 355°
2026-04-19 06:43 58.96207 65.77731 19203 ft 229 kts 354°
2026-04-19 06:43 58.97797 65.78011 19190 ft 231 kts 354°
2026-04-19 06:44 58.99395 65.78291 19182 ft 231 kts 354°
2026-04-19 06:44 59.00988 65.78574 19191 ft 231 kts 354°
2026-04-19 06:44 59.02573 65.78856 19177 ft 232 kts 354°
2026-04-19 06:44 59.04176 65.79144 19193 ft 232 kts 354°
2026-04-19 06:45 59.05794 65.79432 19191 ft 233 kts 354°
2026-04-19 06:45 59.07407 65.79714 19177 ft 234 kts 354°
2026-04-19 06:45 59.09028 65.80000 19198 ft 234 kts 354°
2026-04-19 06:45 59.10629 65.80283 19185 ft 235 kts 354°
2026-04-19 06:46 59.12270 65.80575 19199 ft 235 kts 354°
2026-04-19 06:46 59.13887 65.80866 19185 ft 235 kts 354°
2026-04-19 06:46 59.15509 65.81161 19179 ft 233 kts 354°
2026-04-19 06:46 59.17104 65.81453 19190 ft 230 kts 353°
2026-04-19 06:47 59.18685 65.81754 19176 ft 230 kts 354°
2026-04-19 06:47 59.20257 65.82091 19190 ft 228 kts 354°
2026-04-19 06:47 59.21837 65.82432 19188 ft 227 kts 354°
2026-04-19 06:47 59.23387 65.82768 19191 ft 226 kts 354°
2026-04-19 06:48 59.24942 65.83102 19183 ft 225 kts 354°
2026-04-19 06:48 59.26492 65.83439 19201 ft 224 kts 354°
2026-04-19 06:48 59.28036 65.83772 19190 ft 223 kts 354°
2026-04-19 06:48 59.29583 65.84101 19208 ft 224 kts 354°
2026-04-19 06:49 59.31123 65.84426 19214 ft 227 kts 354°
2026-04-19 06:49 59.32702 65.84761 19189 ft 228 kts 354°
2026-04-19 06:49 59.34270 65.85099 19201 ft 228 kts 354°
2026-04-19 06:49 59.35854 65.85440 19181 ft 229 kts 354°
2026-04-19 06:50 59.37436 65.85783 19209 ft 229 kts 354°
2026-04-19 06:50 59.39003 65.86125 19221 ft 228 kts 354°
2026-04-19 06:50 59.40575 65.86463 19208 ft 229 kts 354°
2026-04-19 06:50 59.42149 65.86786 19226 ft 228 kts 353°
2026-04-19 06:51 59.43719 65.87075 19207 ft 228 kts 353°
2026-04-19 06:51 59.45304 65.87360 19199 ft 229 kts 353°
2026-04-19 06:51 59.46881 65.87649 19211 ft 229 kts 353°
2026-04-19 06:51 59.48477 65.87942 19198 ft 229 kts 353°
2026-04-19 06:52 59.50045 65.88232 19223 ft 228 kts 353°
2026-04-19 06:52 59.51633 65.88521 19207 ft 229 kts 353°
2026-04-19 06:52 59.53208 65.88809 19223 ft 228 kts 353°
2026-04-19 06:52 59.54784 65.89102 19216 ft 228 kts 353°
2026-04-19 06:53 59.56347 65.89384 19199 ft 227 kts 353°
2026-04-19 06:53 59.57927 65.89681 19220 ft 226 kts 352°
2026-04-19 06:53 59.59484 65.89970 19218 ft 226 kts 352°
2026-04-19 06:53 59.61031 65.90255 19224 ft 225 kts 352°
2026-04-19 06:54 59.62583 65.90543 19232 ft 225 kts 352°
2026-04-19 06:54 59.64132 65.90827 19229 ft 225 kts 352°
2026-04-19 06:54 59.65695 65.91118 19224 ft 225 kts 352°
2026-04-19 06:54 59.67235 65.91403 19211 ft 224 kts 352°
2026-04-19 06:55 59.68778 65.91692 19232 ft 223 kts 352°
2026-04-19 06:55 59.70339 65.91980 19231 ft 224 kts 352°
2026-04-19 06:55 59.71870 65.92261 19222 ft 225 kts 352°
2026-04-19 06:55 59.73439 65.92551 19238 ft 224 kts 352°
2026-04-19 06:56 59.74979 65.92838 19236 ft 225 kts 352°
2026-04-19 06:56 59.76532 65.93127 19242 ft 225 kts 352°
2026-04-19 06:56 59.78082 65.93417 19234 ft 225 kts 352°
2026-04-19 06:56 59.79649 65.93709 19259 ft 224 kts 352°
2026-04-19 06:57 59.81187 65.93994 19239 ft 226 kts 352°
2026-04-19 06:57 59.82737 65.94158 19273 ft 221 kts 348°
2026-04-19 06:57 59.84274 65.94232 19246 ft 222 kts 348°
2026-04-19 06:57 59.85825 65.94301 19218 ft 223 kts 348°
2026-04-19 06:58 59.87358 65.94373 19241 ft 222 kts 348°
2026-04-19 06:58 59.88900 65.94448 19240 ft 222 kts 348°
2026-04-19 06:58 59.90444 65.94521 19256 ft 221 kts 348°
2026-04-19 06:58 59.91972 65.94595 19250 ft 222 kts 348°
2026-04-19 06:59 59.93510 65.94670 19266 ft 221 kts 348°
2026-04-19 06:59 59.95044 65.94743 19253 ft 221 kts 348°
2026-04-19 06:59 59.96578 65.94816 19240 ft 222 kts 348°
2026-04-19 06:59 59.98111 65.94881 19251 ft 220 kts 347°
2026-04-19 07:00 59.99626 65.94906 19232 ft 220 kts 347°
2026-04-19 07:00 60.01163 65.94920 19230 ft 221 kts 346°
2026-04-19 07:00 60.02703 65.94938 19240 ft 221 kts 347°
2026-04-19 07:00 60.04219 65.94958 19223 ft 222 kts 347°
2026-04-19 07:01 60.05761 65.94981 19243 ft 220 kts 346°
2026-04-19 07:01 60.07289 65.95002 19220 ft 221 kts 346°
2026-04-19 07:01 60.08815 65.95026 19241 ft 220 kts 346°
2026-04-19 07:01 60.10353 65.95047 19247 ft 220 kts 346°
2026-04-19 07:02 60.11874 65.95065 19243 ft 220 kts 346°
2026-04-19 07:02 60.13401 65.95084 19236 ft 221 kts 347°
2026-04-19 07:02 60.14946 65.95105 19229 ft 221 kts 347°
2026-04-19 07:02 60.16464 65.95131 19248 ft 219 kts 347°
2026-04-19 07:03 60.17977 65.95156 19223 ft 216 kts 346°
2026-04-19 07:03 60.19459 65.95179 19250 ft 214 kts 347°
2026-04-19 07:03 60.20960 65.95205 19245 ft 215 kts 347°
2026-04-19 07:03 60.22451 65.95214 19229 ft 214 kts 347°
2026-04-19 07:04 60.23930 65.95238 19248 ft 213 kts 347°
2026-04-19 07:04 60.25392 65.95261 19232 ft 212 kts 346°
2026-04-19 07:04 60.26864 65.95286 19246 ft 211 kts 346°
2026-04-19 07:04 60.28340 65.95304 19248 ft 213 kts 346°
2026-04-19 07:05 60.29831 65.95321 19240 ft 215 kts 347°
2026-04-19 07:05 60.31316 65.95376 19263 ft 216 kts 347°
2026-04-19 07:05 60.32818 65.95445 19244 ft 217 kts 347°
2026-04-19 07:05 60.34311 65.95519 19257 ft 217 kts 347°
2026-04-19 07:06 60.35828 65.95594 19250 ft 218 kts 347°
2026-04-19 07:06 60.37333 65.95666 19257 ft 218 kts 348°
2026-04-19 07:06 60.38855 65.95742 19261 ft 218 kts 348°
2026-04-19 07:06 60.40356 65.95817 19247 ft 219 kts 348°
2026-04-19 07:07 60.41885 65.95894 19260 ft 218 kts 348°
2026-04-19 07:07 60.43391 65.95966 19246 ft 219 kts 347°
2026-04-19 07:07 60.44914 65.96043 19267 ft 218 kts 347°
2026-04-19 07:07 60.46416 65.96116 19259 ft 219 kts 348°
2026-04-19 07:08 60.47934 65.96185 19258 ft 220 kts 348°
2026-04-19 07:08 60.49467 65.96255 19254 ft 221 kts 348°
2026-04-19 07:08 60.50991 65.96328 19237 ft 220 kts 348°
2026-04-19 07:08 60.52529 65.96407 19228 ft 219 kts 348°
2026-04-19 07:09 60.54046 65.96484 19260 ft 218 kts 348°
2026-04-19 07:09 60.55538 65.96556 19269 ft 218 kts 348°
2026-04-19 07:09 60.57078 65.96629 19245 ft 220 kts 348°
2026-04-19 07:09 60.58594 65.96703 19260 ft 219 kts 348°
2026-04-19 07:10 60.60106 65.96779 19250 ft 220 kts 348°
2026-04-19 07:10 60.61630 65.96857 19246 ft 220 kts 348°
2026-04-19 07:10 60.63153 65.96935 19277 ft 219 kts 348°
2026-04-19 07:10 60.64687 65.97009 19275 ft 220 kts 348°
2026-04-19 07:11 60.66220 65.97080 19255 ft 221 kts 348°
2026-04-19 07:11 60.67726 65.97154 19271 ft 220 kts 348°
2026-04-19 07:11 60.69272 65.97232 19259 ft 220 kts 348°
2026-04-19 07:11 60.70789 65.97308 19253 ft 219 kts 348°
2026-04-19 07:12 60.72301 65.97386 19275 ft 218 kts 348°
2026-04-19 07:12 60.73810 65.97460 19251 ft 218 kts 348°
2026-04-19 07:12 60.75312 65.97536 19256 ft 218 kts 348°
2026-04-19 07:12 60.76808 65.97621 19254 ft 214 kts 348°
2026-04-19 07:13 60.78278 65.97704 19270 ft 210 kts 347°
2026-04-19 07:13 60.79738 65.97781 19285 ft 210 kts 347°
2026-04-19 07:13 60.81200 65.97852 19301 ft 211 kts 347°
2026-04-19 07:13 60.82670 65.97919 19274 ft 214 kts 347°
2026-04-19 07:14 60.84165 65.97987 19293 ft 214 kts 348°
2026-04-19 07:14 60.85655 65.98057 19287 ft 215 kts 348°
2026-04-19 07:14 60.87128 65.98126 19291 ft 215 kts 348°
2026-04-19 07:14 60.88636 65.98201 19285 ft 216 kts 348°
2026-04-19 07:15 60.90128 65.98278 19293 ft 215 kts 348°
2026-04-19 07:15 60.91618 65.98353 19281 ft 216 kts 348°
2026-04-19 07:15 60.94598 65.98507 19291 ft 215 kts 348°
2026-04-19 07:16 60.96086 65.98582 19290 ft 214 kts 348°
2026-04-19 07:16 60.97570 65.98659 19294 ft 214 kts 348°
2026-04-19 07:16 60.99057 65.98735 19297 ft 214 kts 348°
2026-04-19 07:16 61.00548 65.98807 19296 ft 215 kts 348°
2026-04-19 07:17 61.02037 65.98878 19292 ft 216 kts 348°
2026-04-19 07:17 61.03537 65.98953 19301 ft 216 kts 348°
2026-04-19 07:17 61.05045 65.99030 19282 ft 217 kts 348°
2026-04-19 07:17 61.06555 65.99109 19297 ft 216 kts 349°
2026-04-19 07:18 61.08059 65.99186 19295 ft 217 kts 349°
2026-04-19 07:18 61.09545 65.99258 19291 ft 217 kts 349°
2026-04-19 07:18 61.11048 65.99337 19321 ft 217 kts 349°
2026-04-19 07:18 61.12566 65.99414 19292 ft 217 kts 349°
2026-04-19 07:19 61.14068 65.99495 19274 ft 216 kts 349°
2026-04-19 07:19 61.15555 65.99572 19305 ft 215 kts 349°
2026-04-19 07:19 61.17056 65.99647 19291 ft 216 kts 349°
2026-04-19 07:19 61.18532 65.99721 19288 ft 216 kts 349°
2026-04-19 07:20 61.20032 65.99798 19285 ft 216 kts 349°
2026-04-19 07:20 61.21542 65.99877 19303 ft 216 kts 349°
2026-04-19 07:20 61.23053 65.99954 19334 ft 217 kts 350°
2026-04-19 07:20 61.24569 66.00028 19250 ft 220 kts 350°
2026-04-19 07:21 61.26090 66.00102 19278 ft 219 kts 350°
2026-04-19 07:21 61.27586 66.00190 19344 ft 215 kts 349°
2026-04-19 07:21 61.29099 66.00268 19262 ft 219 kts 349°
2026-04-19 07:21 61.30611 66.00339 19241 ft 219 kts 350°
2026-04-19 07:22 61.32120 66.00426 19321 ft 215 kts 350°
2026-04-19 07:22 61.33620 66.00509 19323 ft 216 kts 350°
2026-04-19 07:22 61.35131 66.00578 19242 ft 220 kts 350°
2026-04-19 07:22 61.36651 66.00657 19303 ft 218 kts 350°
2026-04-19 07:23 61.38148 66.00742 19348 ft 216 kts 350°
2026-04-19 07:23 61.39661 66.00815 19273 ft 221 kts 350°
2026-04-19 07:23 61.41206 66.00890 19281 ft 221 kts 351°
2026-04-19 07:23 61.42714 66.00977 19369 ft 217 kts 351°
2026-04-19 07:24 61.44235 66.01059 19297 ft 219 kts 351°
2026-04-19 07:24 61.45764 66.01131 19268 ft 222 kts 351°
2026-04-19 07:24 61.47280 66.01214 19340 ft 218 kts 351°
2026-04-19 07:24 61.48786 66.01295 19319 ft 219 kts 351°
2026-04-19 07:25 61.50323 66.01368 19248 ft 222 kts 351°
2026-04-19 07:25 61.51858 66.01453 19322 ft 218 kts 352°
2026-04-19 07:25 61.53350 66.01538 19340 ft 217 kts 352°
2026-04-19 07:25 61.54863 66.01612 19266 ft 221 kts 352°
2026-04-19 07:26 61.56399 66.01691 19276 ft 219 kts 352°
2026-04-19 07:26 61.57899 66.01778 19345 ft 216 kts 352°
2026-04-19 07:26 61.59408 66.01853 19265 ft 220 kts 351°
2026-04-19 07:26 61.60936 66.01928 19265 ft 220 kts 352°
2026-04-19 07:27 61.62457 66.02013 19336 ft 218 kts 352°
2026-04-19 07:27 61.63990 66.02092 19279 ft 221 kts 351°
2026-04-19 07:27 61.65522 66.02166 19237 ft 222 kts 352°
2026-04-19 07:27 61.67044 66.02252 19332 ft 218 kts 352°
2026-04-19 07:28 61.68549 66.02336 19330 ft 220 kts 352°
2026-04-19 07:28 61.70101 66.02409 19221 ft 224 kts 352°
2026-04-19 07:28 61.71637 66.02491 19286 ft 221 kts 352°
2026-04-19 07:28 61.73169 66.02578 19332 ft 220 kts 352°
2026-04-19 07:29 61.74697 66.02654 19254 ft 223 kts 352°
2026-04-19 07:29 61.76249 66.02734 19240 ft 222 kts 353°
2026-04-19 07:29 61.77777 66.02826 19328 ft 217 kts 352°
2026-04-19 07:29 61.79279 66.02910 19300 ft 218 kts 352°
2026-04-19 07:30 61.80809 66.02985 19240 ft 221 kts 352°
2026-04-19 07:30 61.82323 66.03067 19316 ft 218 kts 352°
2026-04-19 07:30 61.83845 66.03153 19340 ft 219 kts 353°
2026-04-19 07:30 61.85371 66.03227 19272 ft 223 kts 353°
2026-04-19 07:31 61.86905 66.03307 19291 ft 221 kts 353°
2026-04-19 07:31 61.88429 66.03395 19373 ft 218 kts 353°
2026-04-19 07:31 61.89954 66.03476 19297 ft 221 kts 353°
2026-04-19 07:31 61.91479 66.03552 19266 ft 221 kts 353°
2026-04-19 07:32 61.93002 66.03638 19362 ft 217 kts 353°
2026-04-19 07:32 61.94502 66.03717 19339 ft 219 kts 353°
2026-04-19 07:32 61.96043 66.03792 19275 ft 223 kts 353°
2026-04-19 07:32 61.97569 66.03877 19358 ft 219 kts 353°
2026-04-19 07:33 61.99092 66.03963 19379 ft 220 kts 353°
2026-04-19 07:33 62.00628 66.04037 19285 ft 224 kts 353°
2026-04-19 07:33 62.02186 66.04121 19321 ft 223 kts 354°
2026-04-19 07:33 62.03706 66.04209 19389 ft 220 kts 353°
2026-04-19 07:34 62.05241 66.04288 19301 ft 224 kts 353°
2026-04-19 07:34 62.06819 66.04369 19305 ft 224 kts 354°
2026-04-19 07:34 62.08360 66.04459 19381 ft 220 kts 353°
2026-04-19 07:34 62.09894 66.04542 19324 ft 223 kts 354°
2026-04-19 07:35 62.11453 66.04620 19295 ft 225 kts 354°
2026-04-19 07:35 62.12995 66.04707 19357 ft 222 kts 354°
2026-04-19 07:35 62.14524 66.04792 19364 ft 222 kts 354°
2026-04-19 07:35 62.16090 66.04872 19295 ft 226 kts 354°
2026-04-19 07:36 62.17659 66.04953 19345 ft 223 kts 354°
2026-04-19 07:36 62.19196 66.05040 19405 ft 221 kts 354°
2026-04-19 07:36 62.20745 66.05121 19306 ft 226 kts 354°
2026-04-19 07:36 62.22325 66.05199 19312 ft 225 kts 354°
2026-04-19 07:37 62.23871 66.05287 19395 ft 221 kts 354°
2026-04-19 07:37 62.25404 66.05382 19330 ft 225 kts 354°
2026-04-19 07:37 62.26995 66.05475 19283 ft 227 kts 354°
2026-04-19 07:37 62.28540 66.05572 19364 ft 223 kts 354°
2026-04-19 07:38 62.30085 66.05673 19376 ft 223 kts 354°
2026-04-19 07:38 62.31656 66.05765 19268 ft 228 kts 354°
2026-04-19 07:38 62.33215 66.05862 19330 ft 224 kts 355°
2026-04-19 07:38 62.34758 66.05966 19386 ft 222 kts 354°
2026-04-19 07:39 62.36320 66.06062 19294 ft 226 kts 354°
2026-04-19 07:39 62.37889 66.06155 19297 ft 225 kts 354°
2026-04-19 07:39 62.39433 66.06256 19387 ft 221 kts 354°
2026-04-19 07:39 62.40964 66.06353 19330 ft 225 kts 354°
2026-04-19 07:40 62.42535 66.06306 19231 ft 224 kts 346°
2026-04-19 07:40 62.43965 66.05277 19210 ft 217 kts 327°
2026-04-19 07:40 62.45205 66.03494 19242 ft 212 kts 319°
2026-04-19 07:40 62.46307 66.01441 19300 ft 208 kts 315°
2026-04-19 07:41 62.47385 65.99332 19285 ft 209 kts 314°
2026-04-19 07:41 62.48433 65.97169 19227 ft 211 kts 313°
2026-04-19 07:41 62.49468 65.94916 19226 ft 210 kts 311°
2026-04-19 07:41 62.50468 65.92728 19175 ft 201 kts 313°
2026-04-19 07:42 62.51451 65.90653 18785 ft 200 kts 313°
2026-04-19 07:42 62.52457 65.88550 18320 ft 202 kts 314°
2026-04-19 07:42 62.53483 65.86454 17796 ft 207 kts 315°
2026-04-19 07:42 62.54536 65.84354 17362 ft 206 kts 315°
2026-04-19 07:43 62.55576 65.82233 16984 ft 204 kts 315°
2026-04-19 07:43 62.56591 65.80165 16542 ft 205 kts 315°
2026-04-19 07:43 62.57613 65.77982 16058 ft 207 kts 314°
2026-04-19 07:43 62.58612 65.75788 15662 ft 205 kts 314°
2026-04-19 07:44 62.59611 65.73595 15275 ft 204 kts 315°
2026-04-19 07:44 62.60600 65.71431 14830 ft 205 kts 315°
2026-04-19 07:44 62.61608 65.69219 14394 ft 206 kts 315°
2026-04-19 07:44 62.62602 65.67033 14016 ft 204 kts 315°
2026-04-19 07:45 62.63596 65.64857 13620 ft 203 kts 315°
2026-04-19 07:45 62.64583 65.62693 13190 ft 204 kts 316°
2026-04-19 07:45 62.65571 65.60535 12779 ft 204 kts 316°
2026-04-19 07:45 62.66555 65.58381 12405 ft 202 kts 316°
2026-04-19 07:46 62.67556 65.56208 11994 ft 202 kts 316°
2026-04-19 07:46 62.68550 65.54089 11567 ft 202 kts 317°
2026-04-19 07:46 62.69549 65.51968 11177 ft 201 kts 316°
2026-04-19 07:46 62.70515 65.49794 10793 ft 200 kts 316°
2026-04-19 07:47 62.71482 65.47656 10389 ft 199 kts 317°
2026-04-19 07:47 62.72458 65.45534 9956 ft 201 kts 317°
2026-04-19 07:47 62.73453 65.43416 9609 ft 200 kts 317°
2026-04-19 07:47 62.74422 65.41264 9390 ft 197 kts 315°
2026-04-19 07:48 62.75351 65.39127 9170 ft 193 kts 316°
2026-04-19 07:48 62.76300 65.37019 8784 ft 199 kts 317°
2026-04-19 07:48 62.77272 65.34879 8544 ft 198 kts 315°
2026-04-19 07:48 62.78198 65.32745 8369 ft 191 kts 314°
2026-04-19 07:49 62.79119 65.30611 7974 ft 198 kts 315°
2026-04-19 07:49 62.80072 65.28462 7620 ft 196 kts 316°
2026-04-19 07:49 62.81028 65.26352 7260 ft 196 kts 316°
2026-04-19 07:49 62.81998 65.24255 7003 ft 195 kts 317°
2026-04-19 07:50 62.82928 65.22227 6835 ft 187 kts 316°
2026-04-19 07:50 62.83828 65.20197 6504 ft 189 kts 316°
2026-04-19 07:50 62.84779 65.18084 6250 ft 195 kts 317°
2026-04-19 07:50 62.85696 65.16064 6420 ft 182 kts 316°
2026-04-19 07:51 62.86559 65.14059 6442 ft 184 kts 315°
2026-04-19 07:51 62.87477 65.12027 6390 ft 189 kts 317°
2026-04-19 07:51 62.88403 65.10049 6531 ft 184 kts 317°
2026-04-19 07:51 62.89314 65.08092 6600 ft 183 kts 316°
2026-04-19 07:52 62.90209 65.06104 6538 ft 188 kts 317°
2026-04-19 07:52 62.91138 65.04083 6588 ft 186 kts 317°
2026-04-19 07:52 62.92030 65.02064 6668 ft 184 kts 314°
2026-04-19 07:52 62.92892 64.99934 6609 ft 187 kts 313°
2026-04-19 07:53 62.93767 64.97853 6593 ft 187 kts 316°
2026-04-19 07:53 62.94699 64.95860 6640 ft 184 kts 320°
2026-04-19 07:53 62.95629 64.93967 6597 ft 186 kts 318°
2026-04-19 07:53 62.96546 64.91943 6534 ft 188 kts 316°
2026-04-19 07:54 62.97450 64.89862 6553 ft 186 kts 315°
2026-04-19 07:54 62.98321 64.87777 6532 ft 186 kts 314°
2026-04-19 07:54 62.99182 64.85667 6476 ft 188 kts 314°
2026-04-19 07:54 63.00056 64.83575 6482 ft 182 kts 316°
2026-04-19 07:55 63.00947 64.81599 6099 ft 185 kts 317°
2026-04-19 07:55 63.01873 64.79623 5603 ft 192 kts 317°
2026-04-19 07:55 63.02834 64.77544 5183 ft 193 kts 317°
2026-04-19 07:55 63.03770 64.75501 4890 ft 188 kts 318°
2026-04-19 07:56 63.04733 64.73495 4268 ft 201 kts 319°
2026-04-19 07:56 63.05739 64.71265 3624 ft 210 kts 316°
2026-04-19 07:56 63.06690 64.68859 3073 ft 213 kts 311°
2026-04-19 07:56 63.07559 64.66253 2696 ft 206 kts 306°
2026-04-19 07:57 63.08391 64.63721 2258 ft 203 kts 311°
2026-04-19 07:57 63.09293 64.61578 2279 ft 178 kts 318°
2026-04-19 07:57 63.10164 64.59775 2167 ft 166 kts 319°
2026-04-19 07:57 63.10966 64.58147 2207 ft 147 kts 321°
2026-04-19 07:58 63.11694 64.56632 1975 ft 145 kts 318°
2026-04-19 07:58 63.12396 64.55090 1695 ft 142 kts 320°
2026-04-19 07:58 63.13113 64.53658 1389 ft 137 kts 322°
2026-04-19 07:58 63.13831 64.52282 1250 ft 132 kts 321°
2026-04-19 07:59 63.14473 64.50967 1214 ft 122 kts 319°
2026-04-19 07:59 63.15043 64.49583 1077 ft 122 kts 313°
2026-04-19 07:59 63.15547 64.48080 900 ft 123 kts 305°
2026-04-19 07:59 63.16025 64.46503 705 ft 123 kts 315°
2026-04-19 08:00 63.16737 64.45581 543 ft 118 kts 350°
2026-04-19 08:00 63.17530 64.45253 404 ft 116 kts 353°
2026-04-19 08:00 63.18330 64.45060 222 ft 117 kts 354°
2026-04-19 08:00 63.19104 64.44595 86 ft 111 kts 348°
2026-04-19 08:01 63.19695 64.44260 80 ft 60 kts 354°
2026-04-19 08:01 63.19950 64.44121 78 ft 22 kts 338°
2026-04-19 08:01 63.20025 64.44042 78 ft 3 kts 315°
2026-04-19 08:01 63.20038 64.44007 78 ft 6 kts 307°
2026-04-19 08:02 63.20045 64.43949 78 ft 7 kts 270°
2026-04-19 08:02 63.20032 64.43813 79 ft 9 kts 255°
2026-04-19 08:02 63.20013 64.43661 80 ft 10 kts 255°
2026-04-19 08:02 63.20020 64.43587 81 ft 6 kts 324°
2026-04-19 08:03 63.20037 64.43539 81 ft 3 kts 285°
2026-04-19 08:03 63.20030 64.43459 81 ft 3 kts 202°
2026-04-19 08:03 63.20014 64.43469 81 ft 1 kts 163°